Lapse_Rate
6.4 6.2 6.6 7.1 6.6 6.5 6.3 6.4 6.2 6.5 6.3 6.2 6.2 6.3 6.6 6.4 6.2 6.6 6.8 7.0 7.0 6.9 6.9 6.7 6.5 6.4 6.2 6.1 6.1 6.1 6.1 6.2 6.5 6.5 6.4 6.3 6.3 6.3 6.3 6.0 5.9 5.8 5.8 5.7
6.3 6.4 7.0 6.6 6.3 6.2 6.4 6.4 6.6 6.7 6.7 6.1 6.2 6.0 6.4 6.4 6.5 6.6 6.7 6.8 7.0 7.0 7.1 6.8 6.5 6.3 6.2 6.1 6.0 5.9 5.9 6.0 6.1 6.1 6.2 6.1 6.2 6.2 6.2 6.0 5.9 5.9 5.8 5.5
6.5 6.6 6.6 6.6 6.5 6.0 6.3 6.2 6.7 6.7 6.6 6.1 6.2 5.6 6.1 6.5 6.4 6.6 6.7 7.0 6.9 7.3 7.1 6.6 6.3 6.1 6.1 6.0 6.0 6.0 6.0 6.0 6.2 6.1 6.2 6.2 6.2 6.2 6.2 6.2 6.1 5.8 5.6 5.4
6.0 6.3 6.4 6.3 6.4 6.4 6.2 6.7 6.5 6.6 6.3 6.0 6.2 4.7 5.6 6.4 6.6 6.5 7.1 6.8 7.0 7.2 7.0 6.6 6.2 6.0 5.9 5.9 6.0 6.0 6.1 6.1 6.2 6.2 6.2 6.2 6.2 6.1 6.1 6.0 5.7 5.5 5.4 5.3
6.5 6.3 6.6 6.4 6.7 6.6 6.4 6.6 6.8 6.7 6.4 5.9 5.4 4.9 4.7 5.6 6.3 7.2 7.5 7.2 6.7 7.0 6.8 6.4 6.0 5.8 5.6 5.8 6.0 6.1 6.2 6.3 6.3 6.1 6.1 6.1 6.1 6.0 5.9 5.7 5.5 5.4 5.2 5.1
6.0 5.8 5.9 6.1 6.4 6.6 6.2 6.1 6.4 6.2 5.9 4.2 5.4 5.4 4.6 5.7 6.9 7.2 7.6 7.8 6.8 6.6 6.5 6.2 6.0 5.9 5.9 5.9 6.1 6.2 6.3 6.2 6.1 5.9 6.0 5.9 5.8 5.7 5.6 5.5 5.5 5.3 5.2 5.1
5.6 5.6 5.6 5.7 6.1 6.3 6.1 6.0 5.7 4.7 4.0 4.2 6.0 5.5 5.1 6.1 6.8 7.0 7.4 7.4 7.3 6.9 6.8 6.3 6.4 6.3 6.3 6.2 6.1 6.2 6.3 6.2 6.0 5.9 5.8 5.7 5.6 5.5 5.4 5.3 5.3 5.2 5.1 4.8
6.0 5.7 6.1 6.0 6.1 6.7 6.4 6.4 6.4 4.7 4.1 4.1 5.3 4.3 5.4 6.2 6.7 7.1 7.1 7.0 7.0 7.1 7.2 7.1 6.7 6.5 6.5 6.4 6.5 6.4 6.2 6.0 5.9 5.9 5.7 5.5 5.4 5.3 5.3 5.3 5.2 5.0 4.9 4.8
6.3 6.3 7.0 6.9 6.8 6.6 5.8 5.6 6.5 6.4 5.5 4.2 5.3 5.5 5.5 6.0 6.4 6.9 7.5 7.3 7.1 7.0 7.1 7.3 7.1 7.1 6.9 6.9 6.7 6.4 6.1 6.0 5.8 5.7 5.5 5.3 5.2 5.1 5.0 5.0 4.9 4.8 4.7 4.5
6.8 6.6 6.4 6.7 6.8 6.1 5.9 6.4 5.7 5.6 3.9 3.6 4.7 5.1 5.6 6.1 6.2 6.6 7.2 7.4 7.1 7.3 7.3 7.3 7.2 7.2 7.2 6.9 6.5 6.2 6.1 5.9 5.6 5.5 5.4 5.4 5.3 5.2 5.2 5.1 4.8 4.6 4.5 4.5
6.7 6.6 5.5 6.0 5.9 6.7 6.2 5.6 6.2 6.3 6.0 4.3 4.2 5.5 5.8 6.1 6.5 6.8 7.0 7.2 7.4 7.5 7.7 7.3 7.2 7.2 7.1 6.7 6.6 6.4 6.2 6.0 5.9 5.7 5.7 5.6 5.3 5.1 5.0 5.0 4.8 4.7 4.7 4.6
7.1 6.6 6.3 5.9 6.2 6.6 6.5 6.3 6.4 6.7 5.9 6.2 6.0 4.5 5.8 6.2 6.4 6.7 7.0 7.3 7.5 7.7 7.7 7.3 7.2 7.3 7.1 6.8 6.6 6.5 6.3 6.2 5.9 5.7 5.6 5.3 5.1 5.1 5.1 4.9 4.8 4.8 4.8 4.7
6.8 6.2 6.3 5.8 5.4 5.6 5.6 6.1 6.4 6.9 7.1 6.0 5.5 4.4 5.5 5.9 6.6 6.8 7.0 7.0 7.2 7.5 7.7 7.5 7.4 7.3 7.0 6.9 6.8 6.6 6.3 6.1 5.9 5.9 5.7 5.4 5.3 5.2 4.8 4.8 4.8 4.9 4.8 4.8
7.0 6.9 6.7 6.1 6.6 6.7 6.4 6.8 6.8 6.8 5.8 5.6 5.3 5.5 5.4 5.7 6.4 6.8 6.8 6.9 7.0 7.3 7.5 7.6 7.5 7.5 7.3 7.0 6.7 6.5 6.3 6.1 5.8 5.8 5.6 5.6 5.5 5.1 4.7 4.7 4.8 4.9 4.9 4.9
6.5 6.1 6.2 6.5 7.1 7.1 6.9 6.9 7.1 6.4 6.4 6.1 5.5 5.7 6.0 6.4 6.9 6.9 6.3 6.3 6.4 6.8 7.1 7.3 7.4 7.5 7.3 7.0 6.8 6.4 6.0 5.8 5.9 6.0 6.0 5.8 5.4 5.0 4.9 4.9 4.9 5.0 4.9 4.7
6.3 5.8 5.9 6.0 6.5 6.7 6.6 6.5 6.2 6.2 6.1 5.8 5.4 5.0 5.7 6.7 6.6 6.5 6.6 6.3 6.2 6.2 6.4 6.9 6.9 7.0 7.1 6.9 6.7 6.2 6.0 6.0 5.9 5.9 6.0 5.8 5.3 5.1 4.8 4.8 5.0 4.8 4.7 4.2
6.0 5.7 5.7 5.2 5.9 6.1 5.7 4.9 6.0 6.3 6.2 6.1 5.3 5.6 6.3 6.6 6.6 6.5 6.5 6.3 6.3 6.4 6.3 6.4 6.5 6.7 6.9 6.5 6.1 6.0 5.8 5.7 5.4 5.3 5.5 5.4 5.0 4.8 4.8 4.8 4.7 4.7 4.6 4.2
5.7 5.5 5.6 5.4 5.7 5.7 5.4 5.8 6.2 6.5 6.5 6.5 6.0 5.8 6.4 6.3 6.6 6.5 6.2 5.8 5.9 6.2 6.2 6.2 6.2 6.1 6.2 6.0 5.7 5.7 5.4 5.0 4.9 5.1 5.2 5.1 5.0 4.8 4.7 4.7 4.8 4.9 4.2 4.5
6.0 5.9 5.6 5.7 5.7 6.0 6.0 5.4 5.6 5.8 6.6 7.0 6.6 6.4 6.7 6.8 6.9 6.0 6.2 6.6 6.2 5.9 5.9 6.0 5.8 5.7 5.6 5.8 5.6 5.5 5.1 5.3 5.7 5.5 5.4 5.2 5.0 4.6 4.7 5.1 5.2 4.7 4.6 4.8
5.7 5.9 5.7 5.6 5.7 6.0 5.9 5.9 6.1 6.2 5.5 5.9 6.6 6.9 6.9 6.7 6.0 7.1 6.9 6.3 5.7 5.7 5.8 5.8 5.3 4.9 5.2 5.3 5.4 5.5 5.6 5.8 5.7 5.3 5.2 4.8 4.7 5.1 5.3 5.5 5.0 5.0 5.2 5.2
5.6 5.7 5.5 5.4 5.9 5.8 5.9 5.5 6.2 5.5 5.9 6.2 6.7 6.9 6.9 6.9 6.9 6.2 6.0 5.9 5.7 5.5 5.4 5.2 5.2 5.4 5.5 5.6 5.7 5.8 5.5 5.4 5.2 5.3 5.4 5.4 5.4 5.5 5.5 5.2 5.5 5.5 5.4 5.3
5.8 5.6 5.3 5.3 5.6 5.7 5.8 5.7 5.9 6.3 6.2 6.0 6.1 6.4 6.6 6.6 6.5 6.6 5.9 5.7 5.8 5.6 5.5 5.4 5.6 5.7 5.8 5.6 5.5 5.5 5.6 5.5 5.6 5.7 5.3 5.2 5.3 5.3 5.5 5.7 5.6 5.5 5.4 5.2
5.6 5.8 5.7 5.6 5.7 6.1 5.9 5.8 5.6 5.8 5.8 5.6 5.7 5.7 5.9 5.8 6.1 6.1 5.9 5.7 5.7 5.8 5.9 5.9 5.7 5.4 5.4 5.5 5.6 5.6 5.5 5.6 5.4 5.2 5.2 5.3 5.4 5.6 5.6 5.6 5.6 5.5 5.4 5.2
6.0 5.7 5.5 5.7 6.1 6.5 6.4 6.2 6.0 6.1 5.7 5.8 5.8 5.6 5.4 5.6 5.8 5.9 5.9 5.8 5.7 5.7 5.7 5.7 5.7 5.7 5.7 5.7 5.6 5.4 5.3 5.1 5.0 5.2 5.3 5.3 5.5 5.7 5.7 5.6 5.6 5.4 5.3 5.4
6.3 5.9 5.8 6.2 6.3 6.4 6.3 6.3 6.0 5.9 5.8 5.7 5.7 5.7 5.9 5.9 5.9 6.0 6.1 6.1 6.1 6.1 6.0 5.9 5.8 5.6 5.4 5.3 5.2 5.2 5.1 5.2 5.2 5.3 5.4 5.6 5.8 5.8 5.7 5.6 5.5 5.5 5.6 5.5
6.3 6.4 6.6 6.6 6.4 6.1 6.0 5.8 5.8 5.9 5.8 5.7 5.6 5.5 5.5 5.7 5.8 5.9 5.9 6.0 5.9 5.8 5.7 5.6 5.3 5.1 5.2 5.2 5.2 5.3 5.2 5.3 5.4 5.5 5.6 5.6 5.6 5.6 5.8 5.9 5.8 5.7 5.6 5.8
Wind_Speed
2 4 7 12 9 6 3 3 4 5 4 5 8 8 10 11 8 9 10 11 13 13 8 8 7 8 8 7 9 9 9 8 7 7 6 6 5 7 11 16 19 19 21 21
3 8 10 7 7 8 8 7 8 5 4 5 6 11 9 6 12 15 17 15 15 8 9 8 8 7 8 8 10 10 10 10 5 5 6 5 5 6 12 15 18 19 21 20
8 7 6 8 5 6 6 6 5 8 1 3 4 7 8 8 11 10 15 12 11 18 16 11 9 8 7 9 11 13 11 8 8 11 12 11 11 8 6 6 8 14 20 21
9 9 4 6 7 8 7 6 6 6 1 5 4 8 6 6 10 9 19 14 17 15 11 13 12 9 8 7 7 9 10 10 10 14 11 13 7 8 3 5 9 14 20 20
9 8 8 14 9 9 7 2 3 3 3 1 4 5 6 8 11 16 17 15 15 18 18 17 15 12 7 7 7 7 9 8 8 9 9 9 10 9 7 6 9 10 16 20
5 2 6 8 2 5 7 5 6 5 3 4 11 9 5 9 12 12 8 11 15 16 15 14 11 11 8 6 7 7 8 7 8 9 9 12 15 13 10 8 8 6 7 12
2 4 3 4 5 5 4 7 2 3 1 8 6 9 16 7 8 9 10 12 15 16 16 16 16 15 11 10 8 7 8 7 9 12 11 11 13 12 13 11 8 9 6 4
11 7 13 7 9 8 8 9 6 7 5 5 1 7 6 12 10 6 8 15 15 15 15 17 17 15 13 12 10 9 10 8 9 11 11 9 9 7 8 8 8 6 6 5
8 7 3 2 5 13 6 8 4 2 2 1 6 8 8 6 8 3 6 13 17 17 16 17 14 14 13 12 12 12 11 9 10 11 9 9 8 9 9 9 9 5 11 12
6 2 3 2 5 2 7 5 3 1 3 6 5 6 10 5 13 7 8 9 9 12 14 14 15 14 12 12 9 10 10 12 11 10 10 10 10 9 9 10 9 7 12 15
6 4 0 5 7 13 5 5 4 4 5 5 5 8 6 11 11 13 13 14 15 16 15 15 13 12 12 11 11 12 11 11 10 10 7 10 9 9 8 8 8 11 14 15
13 4 4 8 4 5 2 7 7 6 7 5 2 21 5 3 3 8 11 14 13 15 15 14 13 13 14 14 12 13 12 12 11 10 9 8 9 9 9 9 8 16 10 14
10 5 2 5 4 3 7 8 17 1 3 13 5 17 3 1 3 6 9 9 11 13 12 13 14 16 16 15 14 13 13 13 11 11 10 9 9 10 9 9 9 13 13 12
13 6 14 20 7 7 8 12 14 18 9 9 24 26 3 3 6 6 8 9 12 14 15 15 14 16 15 14 14 13 12 12 12 12 11 12 11 11 9 8 8 10 13 9
14 12 9 19 4 6 7 13 20 23 31 14 29 25 19 14 12 10 7 8 11 14 17 19 18 16 15 15 14 13 13 13 12 12 12 12 10 8 8 9 8 9 10 10
6 12 12 19 15 10 7 12 24 26 26 26 29 33 7 8 5 8 12 15 16 17 19 18 15 15 16 16 15 14 13 13 13 13 12 10 10 10 10 9 9 9 8 7
12 11 7 19 11 7 8 36 21 19 21 22 25 37 9 17 16 10 11 15 19 19 19 18 17 15 15 15 15 16 14 12 13 11 10 11 11 11 11 10 10 10 10 6
4 14 6 12 7 12 14 6 26 29 29 23 25 28 9 14 15 13 10 17 17 17 16 16 16 14 13 13 13 13 13 14 14 12 11 11 12 12 9 10 11 8 7 9
18 12 6 6 12 9 16 5 9 14 28 27 29 30 25 7 1 6 8 8 12 12 13 13 13 14 14 15 15 15 13 13 13 13 13 13 12 11 11 12 11 9 8 6
17 20 15 6 8 13 7 0 1 6 21 15 21 26 23 10 10 20 7 8 10 13 11 11 11 10 14 13 14 14 14 13 13 13 14 12 12 13 13 12 11 5 5 8
10 11 19 17 11 5 4 4 2 9 7 3 0 8 7 10 12 4 9 5 4 5 8 8 11 13 10 10 13 13 12 14 12 8 9 10 11 12 11 9 5 6 6 5
9 8 6 8 7 10 5 2 9 3 4 2 2 2 5 4 3 5 7 8 9 9 7 7 9 8 7 10 12 10 12 8 7 8 9 9 8 7 6 9 5 5 7 8
4 4 5 7 5 4 6 5 2 3 2 2 0 1 5 6 2 5 6 7 7 9 8 6 10 9 6 6 8 10 5 7 7 7 7 7 6 6 7 8 7 4 6 6
3 2 2 2 2 2 2 3 3 3 2 2 2 3 5 5 6 6 6 7 7 5 7 4 9 7 5 3 4 4 6 6 7 6 5 5 7 5 5 4 5 6 7 6
2 7 6 3 3 3 6 6 3 3 4 5 3 1 4 7 5 6 6 6 6 6 4 5 8 6 6 4 4 3 5 7 6 5 5 4 3 5 4 2 4 3 1 4
4 6 5 4 6 3 3 9 8 5 3 5 5 3 2 4 6 5 6 5 6 7 4 4 4 6 4 5 4 3 4 6 7 6 5 5 4 3 3 3 1 5 7 10
Wind_Direction
208 123 203 201 196 205 225 214 243 261 230 145 217 249 239 218 218 214 211 200 196 188 166 162 163 152 144 144 137 140 136 138 133 124 114 97 101 91 77 70 70 74 80 81
76 229 226 206 210 225 248 260 268 285 205 166 258 248 254 200 222 211 208 210 198 156 164 162 164 166 166 159 152 149 151 155 156 123 113 112 109 90 94 87 74 76 84 86
175 214 196 191 228 196 226 205 233 227 243 267 285 270 248 242 224 215 227 216 192 176 167 164 170 177 173 167 160 157 161 144 125 120 112 108 101 90 89 70 77 74 86 87
224 228 187 166 217 176 238 211 218 241 159 245 152 284 250 242 243 214 229 199 190 174 164 164 171 175 176 182 145 136 136 135 137 138 135 139 136 130 114 118 109 89 90 90
229 181 189 222 213 168 228 159 191 213 197 332 280 290 262 217 248 248 240 212 187 176 168 170 173 167 164 158 149 139 139 136 142 139 139 130 120 120 127 120 109 96 90 93
209 167 160 195 85 161 153 78 40 39 69 259 225 216 199 239 234 257 238 195 172 170 168 162 152 142 150 155 149 145 140 148 146 138 136 140 141 142 138 136 123 117 107 101
181 202 173 140 98 21 121 103 304 318 307 245 217 232 246 247 248 228 225 187 173 166 161 159 157 162 161 165 164 156 151 147 143 144 142 146 148 147 144 143 139 134 127 121
196 245 172 193 184 170 190 162 167 221 216 261 57 238 250 225 250 280 235 184 164 166 168 166 165 164 164 168 169 163 159 150 145 144 149 148 146 147 144 146 144 137 137 135
179 247 107 153 155 155 201 208 186 10 58 346 223 276 300 243 271 291 186 168 178 171 169 166 164 166 168 172 176 169 159 152 154 151 146 145 140 144 148 141 134 137 132 134
203 205 19 355 87 35 155 163 82 59 222 252 258 252 234 213 238 218 211 184 177 173 165 170 171 171 173 176 169 165 162 160 154 146 150 151 150 146 140 135 138 142 143 140
188 158 295 133 208 174 156 185 190 147 167 214 277 256 204 217 221 207 207 193 183 179 175 175 175 170 168 168 174 170 162 154 155 154 145 146 148 142 136 139 145 151 145 150
201 131 165 203 270 258 216 180 164 176 217 236 202 262 176 130 266 195 204 196 189 182 176 176 170 165 171 177 174 173 168 164 165 159 152 150 146 145 148 153 155 152 150 160
172 206 101 317 347 325 205 214 214 246 61 228 196 263 357 65 199 207 191 186 181 174 169 170 172 178 181 181 180 177 174 170 164 159 156 155 158 158 163 161 157 156 154 161
159 172 205 231 231 152 197 197 205 205 229 218 235 257 173 198 228 209 210 184 178 180 178 178 184 188 185 183 180 178 178 172 167 163 164 168 169 169 168 161 164 162 164 160
169 212 200 237 192 159 179 199 204 207 225 210 252 241 239 233 219 214 188 166 178 187 189 192 190 188 182 180 180 180 176 172 171 169 175 180 170 161 158 165 169 162 164 175
181 228 209 243 235 219 214 212 216 219 232 236 250 260 127 231 223 181 195 186 193 198 201 197 191 185 185 182 183 178 178 176 171 181 182 172 168 169 174 172 170 169 171 175
172 197 176 241 207 226 263 238 220 224 229 225 235 244 197 244 242 219 211 197 202 199 195 190 187 181 184 187 178 183 177 166 176 181 174 175 174 179 183 173 174 180 182 170
169 201 199 246 136 216 246 210 220 228 238 226 245 255 209 235 237 231 200 194 202 199 186 182 179 177 171 166 170 168 168 173 183 182 178 178 180 185 171 175 184 181 174 188
198 196 217 231 225 261 277 183 165 189 244 231 236 248 250 197 98 256 210 207 204 184 178 175 172 165 161 166 168 169 172 177 181 184 183 183 184 178 179 189 188 188 180 182
204 214 210 188 232 237 280 272 225 116 252 172 212 237 236 146 226 250 167 155 156 161 161 162 162 157 163 171 164 165 175 175 183 184 189 179 181 185 186 191 187 174 182 196
199 212 220 224 234 254 228 233 263 162 250 308 269 246 149 203 232 168 145 116 115 125 142 136 153 161 157 140 152 167 165 185 189 164 160 170 178 183 188 179 164 169 178 169
186 183 198 219 239 242 181 33 171 226 336 284 322 181 150 133 67 109 114 124 125 122 121 125 126 128 134 146 148 151 178 173 142 147 161 174 175 176 165 173 165 165 172 195
206 192 178 191 207 185 187 179 196 144 200 290 221 34 132 118 124 119 123 129 133 138 130 118 133 129 116 123 141 163 176 146 149 154 171 171 151 162 161 168 174 166 180 196
224 199 164 125 208 224 233 271 250 152 124 40 57 109 142 132 149 126 130 136 130 123 123 107 112 118 132 139 120 111 146 139 142 154 147 147 167 162 158 160 170 180 187 197
177 141 174 273 244 316 248 226 244 154 90 62 22 150 153 142 152 149 135 128 118 115 105 125 137 143 160 132 128 135 137 138 141 135 141 144 136 162 149 123 165 170 164 176
195 173 180 214 177 150 204 196 191 185 183 169 142 98 89 148 149 121 132 138 140 141 125 112 102 118 140 134 132 149 147 149 145 149 159 167 160 156 152 148 98 226 207 218